Aérodrome :
LOGIN :

S'inscrire | Disclaimer

   EN    FR    IT 

 










Légende :    VFR   VFR Marginal   IFR   IFR Intensif   IFR Très Intensif
Visi : 
Plafond : 
>= 8 km
>= 3000ft
5 à 8 km
1000 à 3000 ft
1500m à 5 km
500 à 1000 ft
800 à 1500m
200 à 500 ft
< 800m
< 200 ft
Symboles :   Orages  Brouillard  Fortes neiges  Fortes précipitations  Vent > 20 kt
SIGMETs :   Divers  Orages  Givrage  Turbulence  Onde Orograph.  Cendres Volcan.







- Altitude de l'aérodrome : 425 ft
- Code IATA : DTM


EDLW - Dortmund

DERNIER METAR :
  • 191420Z VRB04KT 9999 SCT044 10/01 Q1028

METARs EXPIRÉS :
  • 191350Z 32005KT 250V050 9999 SCT044 09/M00 Q1028
  • 191320Z 31005KT 9999 SCT044 09/00 Q1028
  • 191250Z VRB03KT 9999 FEW041 09/M00 Q1028
  • 191220Z 27005KT 220V330 9999 FEW041 08/M01 Q1028

TAF TAF EDLW
Valide du 19 à 12h jusqu'au 20 à 12h UTC


191100Z 1912/2012 25005KT 9999 SCT040
BECMG 1912/1914 31005KT
BECMG 1917/1920 18005KT
BECMG 2002/2005 18010KT
BECMG 2008/2011 24008KT
Pas de NOTAMs connus pour ce terrain.



MET'MAP, la Météo Aéronautique d'un coup d'oeil ! - Copyright ORBIFLY Décembre 2007 - Disclaimer

ORBIFLY MET'MAP TEAM :

Programmation & Développement : Alexandra Zaïnal
Conception & Développement : Baudouin d'Aumeries
Co-Programmation & Développement : Marc-Olivier Méhu
Soutien technique & logistique : Manuel Goepfert

Contact : metmap@orbifly.com




SOURCES & CREDITS :

   NOAA